Regional Weather Roundup
Issued by NWS

Home | Current Version | Previous Version | Text Only | Print | Product List | Glossary On
Versions: 1 2 3 4 5 6 7 8 9 10 11 12 13 14 15 16 17 18 19 20 21 22 23 24 25 26 27 28 29 30 31 32 33 34 35 36 37 38 39 40 41 42 43 44 45 46 47 48 49 50
000
ASPQ40 PGUM 272112
RWRPQ
WEATHER ROUNDUP FOR THE MARIANAS AND MICRONESIA
NATIONAL WEATHER SERVICE TIYAN GU
700 AM CHST THU AUG 28 2014

GUZ001>004-272200-
MARIANA ISLANDS-

CITY           SKY/WX    TMP DP  RH WIND       PRES   REMARKS
GUAM AIRPORT   MOSUNNY   81  77  89 NE10      29.87R
ANDERSEN AFB   SUNNY     81  75  83 NE8       29.88R
ROTA AIRPORT   MOSUNNY   79  73  83 SE5       29.88
TINIAN AP      MOSUNNY   79  77  94 E6        29.85R
SAIPAN AP      PTSUNNY   81  77  89 E7        29.87R

$$

PMZ161-272200-
REPUBLIC OF PALAU-

CITY           SKY/WX    TMP DP  RH WIND       PRES   REMARKS
KOROR AP       MOCLDY    79  79 100 CALM      29.81S
KOROR WSO      MOCLDY    79  77  94 CALM      29.81R

$$

PMZ171>174-272200-
FEDERATED STATES OF MICRONESIA-

CITY           SKY/WX    TMP DP  RH WIND       PRES   REMARKS
YAP AIRPORT    CLOUDY    79  77  94 VRB2      29.82R THUNDER
CHUUK AP       PTSUNNY   79  79 100 CALM      29.80R
POHNPEI AP     NOT AVBL
POHNPEI WSO    CLOUDY    82  79  89 SE3       29.84R HX  93
KOSRAE AP      NOT AVBL

$$

PMZ181-272200-
REPUBLIC OF THE MARSHALL ISLANDS-

CITY           SKY/WX    TMP DP  RH WIND       PRES   REMARKS
KWAJALEIN AP   SUNNY     82  75  78 E6        29.83S
MAJURO AP      MOSUNNY   86  77  74 VRB5      29.82  HX  97
MAJURO WSO     MOSUNNY   86  77  74 SE6       29.83R HX  97

$$



USA.gov is the U.S. government's official web portal to all federal, state and local government web resources and services.